Weather reports worldwide

Advertisment
Le Luc, France (7675): temperature & dewpoint: 13.01.2021 06:00:00 - 19.01.2021 06:00:00 (CET)Le Luc, France (7675): temperature 5cm: 13.01.2021 06:00:00 - 19.01.2021 06:00:00 (CET)Le Luc, France (7675): wind speed & gusts: 13.01.2021 06:00:00 - 19.01.2021 06:00:00 (CET)Le Luc, France (7675): wind direction: 13.01.2021 06:00:00 - 19.01.2021 06:00:00 (CET)Le Luc, France (7675): reduced air pressure: 13.01.2021 06:00:00 - 19.01.2021 06:00:00 (CET)Le Luc, France (7675): visibility: 13.01.2021 06:00:00 - 19.01.2021 06:00:00 (CET)Le Luc, France (7675): sunshine duration: 13.01.2021 06:00:00 - 19.01.2021 06:00:00 (CET)Le Luc, France (7675): precipitation: 13.01.2021 06:00:00 - 19.01.2021 06:00:00 (CET)
Date & Time tt [°C] td [°C] tt 5cm [°C] ff [km/h] ff [kn] fx [km/h] fx [kn] dd ppp [hPa] vv [km] sd [min] rr [mm]
19.01.2021 06:00:00 -3,2 -4,3 -6,4 0 0 3 2 N 1026,1 20 0 0,0
19.01.2021 05:00:00 -2,7 -4,3 -5,6 0 0 6 3 N 1025,9 20 0 0,0
19.01.2021 04:00:00 -2,4 -3,5 -5,7 0 0 5 3 N 1026,1 20 0 0,0
19.01.2021 03:00:00 -1,8 -2,8 -5,1 0 0 5 3 N 1026,4 20 0 0,0
19.01.2021 02:00:00 -1,7 -2,8 -4,1 3 1 7 4 SW 1026,2 20 0 0,0
19.01.2021 01:00:00 -1,6 -2,7 -4,0 3 2 6 3 NW 1026,4 20 0 0,0
19.01.2021 00:00:00 -0,2 -1,3 -3,2 4 2 6 3 WNW 1026,3 18 0 0,0
18.01.2021 23:00:00 -0,2 -1,9 -2,3 0 0 6 3 N 1026,3 20 0 0,0
18.01.2021 22:00:00 0,7 -0,9 -2,2 0 0 5 3 N 1025,9 20 0 0,0
18.01.2021 21:00:00 2,3 0,4 -0,6 0 0 10 5 N 1025,6 20 0 0,0
18.01.2021 20:00:00 3,9 0,6 0,6 0 0 5 3 N 1025,2 20 0 0,0
18.01.2021 19:00:00 5,5 1,6 0,6 0 0 7 4 N 1024,6 20 0 0,0
18.01.2021 18:00:00 8,7 3,1 4,5 3 2 6 3 WSW 1024,1 20 3 0,0
18.01.2021 17:00:00 12,5 2,1 12,7 3 1 6 4 SE 1023,2 20 60 0,0
18.01.2021 16:00:00 13,0 0,7 16,1 4 2 10 5 WNW 1022,9 20 55 0,0
18.01.2021 15:00:00 12,4 -0,2 16,9 4 2 12 7 NNE 1022,8 20 56 0,0
18.01.2021 14:00:00 12,7 -0,2 18,5 3 2 11 6 W 1022,7 20 60 0,0
18.01.2021 13:00:00 10,9 -2,9 17,1 5 3 10 5 WNW 1023,1 20 60 0,0
18.01.2021 12:00:00 9,9 -3,1 15,4 2 1 16 9 WSW 1023,6 20 60 0,0
18.01.2021 11:00:00 9,1 -2,8 11,8 0 0 10 6 N 1023,7 20 60 0,0
18.01.2021 10:00:00 6,4 -3,0 6,1 5 3 16 9 SW 1023,5 20 60 0,0
18.01.2021 09:00:00 4,3 -3,5 1,0 9 5 18 10 WSW 1022,9 20 34 0,0
18.01.2021 08:00:00 3,1 -3,5 0,8 8 4 19 10 SW 1022,5 20 0 0,0
18.01.2021 07:00:00 3,8 -3,5 2,1 14 8 21 11 WSW 1022,5 20 0 0,0
18.01.2021 06:00:00 4,5 -3,5 1,8 10 5 22 12 SW 1022,0 20 0 0,0
18.01.2021 05:00:00 4,9 -3,9 1,8 8 5 21 12 SW 1022,0 20 0 0,0
18.01.2021 04:00:00 5,4 -3,9 2,8 5 3 16 8 SSW 1022,0 20 0 0,0
18.01.2021 03:00:00 5,7 -4,2 2,7 6 4 18 10 SW 1021,8 20 0 0,0
18.01.2021 02:00:00 5,8 -4,4 3,4 6 4 21 11 SSW 1021,3 20 0 0,0
18.01.2021 01:00:00 6,3 -4,2 4,0 11 6 19 11 WSW 1021,0 20 0 0,0
18.01.2021 00:00:00 7,0 -3,8 4,9 10 6 26 14 SW 1020,5 20 0 0,0
17.01.2021 23:00:00 8,1 -3,4 6,1 16 9 29 16 W 1019,8 20 0 0,0
17.01.2021 22:00:00 8,3 -3,3 6,1 15 8 29 16 W 1019,4 20 0 0,0
17.01.2021 21:00:00 8,8 -3,4 6,8 13 7 55 30 W 1018,6 20 0 0,0
17.01.2021 20:00:00 8,9 -2,7 7,8 34 18 81 44 NW 1017,0 20 0 0,0
17.01.2021 19:00:00 9,9 -2,1 9,1 49 26 87 47 NW 1015,0 20 0 0,0
17.01.2021 18:00:00 11,0 -3,5 10,0 49 26 76 41 NW 1013,7 20 2 0,0
17.01.2021 17:00:00 12,0 -3,0 11,0 32 17 62 33 NW 1013,5 20 60 0,0
17.01.2021 16:00:00 13,4 -1,4 15,1 31 17 62 34 WNW 1012,8 20 60 0,0
17.01.2021 15:00:00 13,8 -0,7 15,7 41 22 67 36 WNW 1012,4 20 60 0,0
17.01.2021 14:00:00 14,0 0,6 16,1 23 12 54 29 WNW 1012,7 20 60 0,0
17.01.2021 13:00:00 13,7 1,3 15,1 38 21 61 33 WNW 1013,3 20 60 0,0
17.01.2021 12:00:00 12,8 1,5 14,7 36 19 56 30 WNW 1013,8 20 60 0,0
17.01.2021 11:00:00 11,6 2,1 12,2 28 15 56 31 WNW 1014,5 20 60 0,0
17.01.2021 10:00:00 9,6 1,7 9,4 31 17 49 27 W 1014,6 20 55 0,0
17.01.2021 09:00:00 8,8 1,9 6,6 26 14 44 24 WNW 1014,4 20 33 0,0
17.01.2021 08:00:00 8,1 1,7 5,8 17 9 42 23 WNW 1014,3 20 0 0,0
17.01.2021 07:00:00 7,6 1,4 5,4 21 11 55 30 WNW 1014,1 20 0 0,0
17.01.2021 06:00:00 7,0 0,6 1,7 11 6 22 12 W 1014,8 20 0 0,0
17.01.2021 05:00:00 4,4 -0,4 -0,1 3 2 8 4 SE 1015,8 20 0 0,0
17.01.2021 04:00:00 3,2 -3,0 -0,2 4 2 19 10 ENE 1016,6 20 0 0,0
17.01.2021 03:00:00 4,9 -3,6 3,6 15 8 41 22 W 1017,8 20 0 0,0
17.01.2021 02:00:00 5,7 -5,3 4,3 23 12 41 22 WSW 1018,2 20 0 0,0
17.01.2021 01:00:00 5,5 -8,1 3,7 22 12 34 18 WSW 1018,5 20 0 0,0
17.01.2021 00:00:00 4,9 -8,3 3,8 16 9 40 22 W 1019,2 20 0 0,0
16.01.2021 23:00:00 4,6 -6,0 3,7 19 10 30 16 WSW 1019,8 20 0 0,0
16.01.2021 22:00:00 4,9 -3,4 4,1 16 9 41 22 W 1020,2 20 0 0,0
16.01.2021 21:00:00 5,2 -2,9 4,0 26 14 38 21 W 1020,3 20 0 0,0
16.01.2021 20:00:00 6,0 -2,1 3,6 23 13 32 18 W 1021,1 20 0 0,0
16.01.2021 19:00:00 6,0 -1,0 4,3 8 4 18 10 WNW 1021,4 20 0 0,0
16.01.2021 18:00:00 6,2 1,5 4,3 8 5 13 7 WSW 1021,3 20 0 0,0
16.01.2021 17:00:00 8,5 1,9 7,3 5 3 10 5 SSW 1021,1 20 37 0,0
16.01.2021 16:00:00 9,6 1,5 11,0 4 2 8 4 SW 1021,0 20 13 0,0
16.01.2021 15:00:00 8,7 1,1 9,1 2 1 8 4 W 1021,4 20 12 0,0
16.01.2021 14:00:00 7,1 0,7 8,4 4 2 8 4 SSW 1021,5 20 0 0,0
16.01.2021 13:00:00 7,3 -0,9 9,0 3 1 8 4 W 1022,0 20 0 0,0
16.01.2021 12:00:00 6,9 -1,0 8,1 2 1 7 4 N 1022,5 20 0 0,0
16.01.2021 11:00:00 5,8 -1,4 6,3 0 0 12 7 N 1022,7 20 0 0,0
16.01.2021 10:00:00 5,5 -2,4 4,7 9 5 13 7 W 1022,2 20 0 0,0
16.01.2021 09:00:00 4,8 -2,3 3,9 7 4 11 6 W 1021,6 20 0 0,0
16.01.2021 08:00:00 4,3 -2,1 2,1 6 3 11 6 WNW 1021,2 20 0 0,0
16.01.2021 07:00:00 4,4 -2,7 1,1 5 3 9 5 W 1021,0 20 0 0,0
16.01.2021 06:00:00 5,0 -2,6 3,4 8 4 16 9 W 1020,5 20 0 0,0
16.01.2021 05:00:00 5,9 -2,2 5,0 13 7 19 10 WSW 1020,1 20 0 0,0
16.01.2021 04:00:00 6,2 -1,9 5,1 8 4 18 10 SW 1019,6 20 0 0,0
16.01.2021 03:00:00 6,3 -1,8 5,6 10 5 18 10 WSW 1019,6 20 0 0,0
16.01.2021 02:00:00 6,0 -1,9 4,8 9 5 16 8 SW 1019,0 20 0 0,0
16.01.2021 01:00:00 5,7 -1,9 4,5 8 4 15 8 WSW 1018,5 20 0 0,0
16.01.2021 00:00:00 5,4 -2,0 4,0 10 5 19 10 WSW 1018,4 20 0 0,0
15.01.2021 23:00:00 6,0 -1,9 4,9 9 5 16 9 WSW 1017,5 20 0 0,0
15.01.2021 22:00:00 6,7 -1,5 6,1 8 4 16 9 SSW 1016,9 20 0 0,0
15.01.2021 21:00:00 7,2 -1,8 6,4 6 4 21 11 WSW 1016,2 20 0 0,0
15.01.2021 20:00:00 7,8 -1,7 6,8 11 6 28 15 W 1015,4 20 0 0,0
15.01.2021 19:00:00 8,3 -1,3 7,1 12 7 29 16 WSW 1014,7 20 0 0,0
15.01.2021 18:00:00 10,3 -0,8 9,4 23 12 52 28 W 1013,9 20 0 0,0
15.01.2021 17:00:00 11,7 -0,2 11,3 29 16 50 27 W 1013,1 20 60 0,0
15.01.2021 16:00:00 13,0 0,4 14,6 27 15 43 23 W 1012,8 20 60 0,0
15.01.2021 15:00:00 13,8 0,8 16,8 31 17 54 29 W 1012,5 20 60 0,0
15.01.2021 14:00:00 15,1 1,9 14,2 26 14 40 22 WNW 1012,6 20 44 0,0
15.01.2021 13:00:00 13,9 1,8 15,3 27 15 42 23 WNW 1013,4 20 54 0,0
15.01.2021 12:00:00 14,0 2,5 16,4 18 10 42 23 WNW 1014,1 20 60 0,0
15.01.2021 11:00:00 13,2 2,7 14,4 22 12 44 24 WNW 1014,4 20 60 0,0
15.01.2021 10:00:00 11,9 2,3 11,1 21 11 50 27 WNW 1014,0 20 60 0,0
15.01.2021 09:00:00 10,4 2,5 8,8 27 15 45 24 WNW 1013,2 20 25 0,0
15.01.2021 08:00:00 10,2 2,5 9,1 26 14 42 23 W 1013,0 20 0 0,0
15.01.2021 07:00:00 10,5 2,6 9,2 21 11 44 24 W 1012,6 20 0 0,0
15.01.2021 06:00:00 10,5 2,8 9,7 22 12 42 23 WNW 1012,1 20 0 0,0
15.01.2021 05:00:00 10,5 2,8 9,6 22 12 39 21 WNW 1012,6 50 0 0,0
15.01.2021 04:00:00 10,7 3,0 9,4 23 13 39 21 WNW 1012,9 50 0 0,0
15.01.2021 03:00:00 10,3 3,1 8,9 27 15 38 20 WNW 1012,9 50 0 0,0
15.01.2021 02:00:00 10,7 3,2 9,6 22 12 35 19 WNW 1012,3 50 0 0,0
15.01.2021 01:00:00 11,5 3,3 9,7 10 6 40 21 WNW 1012,5 50 0 0,0
15.01.2021 00:00:00 11,2 3,2 9,9 26 14 62 33 W 1012,2 50 0 0,0
14.01.2021 23:00:00 11,5 2,8 10,3 37 20 72 39 WNW 1011,4 50 0 0,0
14.01.2021 22:00:00 11,4 2,7 10,3 42 23 73 39 WNW 1011,2 50 0 0,0
14.01.2021 21:00:00 11,6 2,6 10,6 54 29 75 40 WNW 1010,9 50 0 0,0
14.01.2021 20:00:00 11,8 2,5 10,9 50 27 76 41 WNW 1010,8 50 0 0,0
14.01.2021 19:00:00 12,1 2,3 11,0 48 26 74 40 W 1010,6 50 0 0,0
14.01.2021 18:00:00 12,5 2,3 11,3 36 19 59 32 W 1010,9 50 0 0,0
14.01.2021 17:00:00 13,6 2,5 12,5 29 16 49 27 W 1010,8 20 58 0,0
14.01.2021 16:00:00 14,6 2,5 16,8 29 16 61 33 W 1010,2 20 60 0,0
14.01.2021 15:00:00 15,0 2,5 17,4 28 15 62 33 W 1010,4 45 60 0,0
14.01.2021 14:00:00 14,8 2,3 17,2 34 18 63 34 W 1010,9 47 60 0,0
14.01.2021 13:00:00 14,5 2,4 16,8 34 18 61 33 W 1012,0 44 60 0,0
14.01.2021 12:00:00 13,8 1,7 15,9 25 14 56 30 W 1012,8 41 60 0,0
14.01.2021 11:00:00 12,1 2,0 12,5 21 11 61 33 W 1013,7 50 39 0,0
14.01.2021 10:00:00 11,3 2,8 10,8 29 16 55 30 W 1014,0 50 60 0,0
14.01.2021 09:00:00 10,3 2,9 7,6 29 16 49 27 W 1014,2 50 31 0,0
14.01.2021 08:00:00 9,2 2,7 7,6 17 9 35 19 W 1014,5 50 0 0,0
14.01.2021 07:00:00 10,1 2,7 8,4 21 11 40 21 W 1014,3 50 0 0,0
14.01.2021 06:00:00 10,1 2,9 8,4 22 12 39 21 W 1014,2 50 0 0,0
14.01.2021 05:00:00 10,3 3,8 8,6 22 12 43 23 W 1014,6 50 0 0,0
14.01.2021 04:00:00 10,5 4,2 9,0 26 14 51 28 W 1015,2 50 0 0,0
14.01.2021 03:00:00 10,5 4,4 9,3 34 18 56 30 W 1015,4 50 0 0,0
14.01.2021 02:00:00 10,9 4,1 9,7 37 20 60 33 W 1015,3 50 0 0,0
14.01.2021 01:00:00 11,1 4,3 9,6 27 15 44 24 WNW 1015,9 50 0 0,0
14.01.2021 00:00:00 11,0 4,4 9,6 19 10 40 21 WNW 1016,6 50 0 0,0
13.01.2021 23:00:00 10,9 4,6 9,7 23 12 42 23 W 1016,7 50 0 0,0
13.01.2021 22:00:00 11,4 4,6 10,0 19 11 44 24 W 1017,0 50 0 0,0
13.01.2021 21:00:00 11,6 4,6 10,4 28 15 46 25 WNW 1017,2 50 0 0,0
13.01.2021 20:00:00 12,3 4,5 11,1 29 16 58 31 W 1017,2 50 0 0,0
13.01.2021 19:00:00 12,8 4,7 11,9 41 22 63 34 WNW 1016,5 50 0 0,0
13.01.2021 18:00:00 13,3 5,0 12,4 44 24 64 34 WNW 1016,0 50 0 0,0
13.01.2021 17:00:00 14,5 5,0 13,4 28 15 59 32 W 1016,3 50 57 0,0
13.01.2021 16:00:00 15,7 5,6 17,6 32 18 68 37 W 1016,0 50 60 0,0
13.01.2021 15:00:00 16,4 5,6 18,5 36 19 65 35 W 1015,4 44 60 0,0
13.01.2021 14:00:00 16,2 5,5 17,6 42 23 68 37 W 1015,2 44 60 0,0
13.01.2021 13:00:00 15,7 5,9 17,2 47 26 70 38 WNW 1015,5 48 60 0,0
13.01.2021 12:00:00 15,2 5,9 16,0 34 19 61 33 WNW 1016,4 48 60 0,0
13.01.2021 11:00:00 13,4 5,3 14,4 38 21 64 35 WNW 1016,3 20 60 0,0
13.01.2021 10:00:00 11,8 5,0 11,1 25 14 45 24 W 1016,9 50 60 0,0
13.01.2021 09:00:00 10,6 4,3 9,0 21 11 63 34 WNW 1016,7 50 31 0,0
13.01.2021 08:00:00 9,9 3,8 8,7 42 23 69 37 WNW 1015,2 50 0 0,0
13.01.2021 07:00:00 9,9 3,6 8,7 37 20 59 32 W 1015,3 50 0 0,0
13.01.2021 06:00:00 9,7 3,4 8,6 32 18 53 28 W 1015,4 50 0 0,0

tt = temperature
td = dewpoint
tt 5cm = temperature 5cm
ff = wind speed
fx = gusts
dd = wind direction
ppp = reduced air pressure
vv = visibility
sd = sunshine duration
rr = precipitation

Next stations